Anaktuvuk Pass, AK

5:47 PM AKDT on May 24, 2017 (GMT -0800)
Anaktuvuk Pass

Weather History for PAKP - November, 2012

Change the Weather History Date:

Thursday, November 29, 2012

  Actual Average Record
Temperature  
Mean Temperature -2 °F -  
Max Temperature 6 °F 0 °F 23 °F (2002)
Min Temperature -11 °F -8 °F -32 °F (2016)
Degree Days  
Heating Degree Days 68    
Moisture  
Dew Point -11 °F    
Average Humidity 64    
Maximum Humidity 100    
Minimum Humidity 28    
Precipitation  
Precipitation 0.00 in - - ()
Sea Level Pressure  
Sea Level Pressure 30.14 in    
Wind  
Wind Speed 11 mph (NE)    
Max Wind Speed 20 mph    
Max Gust Speed 24 mph    
Visibility 9 miles    
Events      
Averages and records for this station are not official NWS values.
T = Trace of Precipitation, MM = Missing Value Source: NWS Daily Summary

Daily Weather History Graph

Daily Weather History Graph

Search for Another Location

Airport or City:

Trip Planner

Search our weather history database for the weather conditions in past years. The results will help you decide how hot, cold, wet, or windy it might be!

Date:

Astronomy

Nov. 29, 2012 Rise Set
Actual Time 11:40 AM AKST 2:10 PM AKST
Civil Twilight 9:48 AM AKST 4:01 PM AKST
Nautical Twilight 8:26 AM AKST 5:23 PM AKST
Astronomical Twilight 7:17 AM AKST 6:33 PM AKST
Moon 3:17 PM AKST (11/29) 12:40 PM AKST (11/29)
Length of Visible Light 6h 12m
Length of Day
2h 29m
Full, 99% of the Moon is Illuminated
Nov 29
Full
Dec 6
Last Quarter
Dec 12
New
Dec 19
First Quarter
Dec 28
Full

Hourly Weather History & Observations

Time (AKST) Temp. Windchill Dew Point Humidity Pressure Visibility Wind Dir Wind Speed Gust Speed Precip Events Conditions
12:16 AM 5.0 °F -11.6 °F -2.2 °F 72% 30.16 in 4.0 mi NE 12.7 mph - N/A   Mostly Cloudy
12:36 AM 5.0 °F -10.8 °F -2.2 °F 72% 30.15 in 3.0 mi NNE 11.5 mph - N/A   Overcast
12:56 AM 5.0 °F -11.6 °F -2.2 °F 72% 30.14 in 5.0 mi NE 12.7 mph 17.3 mph N/A   Overcast
1:16 AM 5.0 °F -10.0 °F -4.0 °F 66% 30.14 in 4.0 mi NE 10.4 mph 19.6 mph N/A   Overcast
1:36 AM 6.8 °F -10.7 °F -0.4 °F 72% 30.14 in 5.0 mi NE 15.0 mph 20.7 mph N/A   Overcast
1:56 AM 6.8 °F -11.3 °F 6.8 °F 100% 30.14 in 2.5 mi ENE 16.1 mph 20.7 mph N/A   Overcast
2:16 AM 6.8 °F -10.0 °F -20.2 °F 28% 30.14 in 1.8 mi ENE 13.8 mph 24.2 mph N/A   Overcast
2:36 AM 6.8 °F -10.7 °F -14.8 °F 37% 30.13 in 1.5 mi ENE 15.0 mph 23.0 mph N/A   Overcast
3:16 AM 6.8 °F -10.0 °F -7.6 °F 52% 30.14 in 3.0 mi NE 13.8 mph 19.6 mph N/A   Mostly Cloudy
3:36 AM 6.8 °F -11.3 °F -5.8 °F 56% 30.14 in 3.0 mi NE 16.1 mph 21.9 mph N/A   Overcast
3:56 AM 6.8 °F -11.8 °F -5.8 °F 56% 30.14 in 4.0 mi NE 17.3 mph 21.9 mph N/A   Overcast
4:16 AM 6.8 °F -11.3 °F -4.0 °F 61% 30.14 in 5.0 mi NE 16.1 mph 23.0 mph N/A   Overcast
4:36 AM 6.8 °F -8.6 °F -4.0 °F 61% 30.14 in 5.0 mi NE 11.5 mph - N/A   Overcast
4:56 AM 6.8 °F -9.3 °F -4.0 °F 61% 30.14 in 10.0 mi NE 12.7 mph 18.4 mph N/A   Overcast
5:16 AM 6.8 °F -8.6 °F -4.0 °F 61% 30.13 in 10.0 mi NE 11.5 mph - N/A   Overcast
5:36 AM 6.8 °F -8.6 °F -4.0 °F 61% 30.14 in 10.0 mi NE 11.5 mph - N/A   Overcast
5:56 AM 6.8 °F -10.0 °F -2.2 °F 67% 30.13 in 10.0 mi NE 13.8 mph - N/A   Overcast
6:16 AM 6.8 °F -11.3 °F -2.2 °F 67% 30.13 in 10.0 mi NE 16.1 mph 21.9 mph N/A   Overcast
6:36 AM 6.8 °F -10.7 °F -4.0 °F 61% 30.13 in 10.0 mi NE 15.0 mph 20.7 mph N/A   Overcast
6:56 AM 6.8 °F -11.8 °F -2.2 °F 67% 30.13 in 10.0 mi NE 17.3 mph 20.7 mph N/A   Overcast
7:16 AM 5.0 °F -14.2 °F -5.8 °F 61% 30.12 in 10.0 mi NE 17.3 mph 20.7 mph N/A   Overcast
7:36 AM 3.2 °F -14.6 °F -5.8 °F 66% 30.12 in 10.0 mi NE 13.8 mph - N/A   Mostly Cloudy
7:56 AM 5.0 °F -13.6 °F -4.0 °F 66% 30.11 in 10.0 mi ENE 16.1 mph - N/A   Mostly Cloudy
8:16 AM 3.2 °F -17.6 °F -5.8 °F 66% 30.12 in 10.0 mi NE 19.6 mph 23.0 mph N/A   Overcast
8:36 AM 3.2 °F -15.3 °F -7.6 °F 61% 30.12 in 10.0 mi NE 15.0 mph 21.9 mph N/A   Scattered Clouds
8:56 AM 1.4 °F -17.6 °F -7.6 °F 66% 30.13 in 10.0 mi ENE 15.0 mph 20.7 mph N/A   Mostly Cloudy
9:16 AM 1.4 °F -18.8 °F -5.8 °F 72% 30.14 in 10.0 mi ENE 17.3 mph 21.9 mph N/A   Overcast
9:36 AM 3.2 °F -14.6 °F -7.6 °F 61% 30.14 in 10.0 mi ENE 13.8 mph - N/A   Overcast
9:56 AM 3.2 °F -15.9 °F -7.6 °F 61% 30.15 in 10.0 mi NE 16.1 mph - N/A   Overcast
10:16 AM 1.4 °F -12.5 °F -9.4 °F 61% 30.16 in 10.0 mi NNE 8.1 mph - N/A   Overcast
10:36 AM 1.4 °F -12.5 °F -7.6 °F 66% 30.15 in 10.0 mi North 8.1 mph - N/A   Overcast
10:56 AM 1.4 °F -11.3 °F -9.4 °F 61% 30.15 in 10.0 mi NE 6.9 mph - N/A   Overcast
11:16 AM 1.4 °F -15.3 °F -9.4 °F 61% 30.15 in 10.0 mi NE 11.5 mph - N/A   Overcast
11:36 AM 1.4 °F -14.5 °F -9.4 °F 61% 30.15 in 10.0 mi NNE 10.4 mph - N/A   Mostly Cloudy
11:56 AM 1.4 °F -13.5 °F -9.4 °F 61% 30.15 in 10.0 mi ENE 9.2 mph - N/A   Clear
12:16 PM -0.4 °F -13.4 °F -9.4 °F 66% 30.15 in 10.0 mi NE 6.9 mph - N/A   Clear
12:36 PM -0.4 °F -14.7 °F -13.0 °F 55% 30.15 in 10.0 mi NNE 8.1 mph - N/A   Clear
12:56 PM -2.2 °F -16.8 °F -13.0 °F 60% 30.15 in 10.0 mi NNE 8.1 mph - N/A   Clear
1:16 PM -2.2 °F -15.6 °F -14.8 °F 55% 30.15 in 10.0 mi NNE 6.9 mph - N/A   Partly Cloudy
1:36 PM -2.2 °F -15.6 °F -13.0 °F 60% 30.15 in 10.0 mi North 6.9 mph - N/A   Mostly Cloudy
1:56 PM -4.0 °F -16.3 °F -11.2 °F 71% 30.15 in 10.0 mi NNE 5.8 mph - N/A   Mostly Cloudy
2:16 PM -5.8 °F -19.9 °F -18.4 °F 55% 30.16 in 10.0 mi NNE 6.9 mph - N/A   Mostly Cloudy
2:36 PM -5.8 °F -14.5 °F -14.8 °F 65% 30.15 in 10.0 mi WNW 3.5 mph - N/A   Partly Cloudy
2:56 PM -5.8 °F -14.5 °F -14.8 °F 65% 30.15 in 10.0 mi North 3.5 mph - N/A   Clear
3:16 PM -5.8 °F -14.5 °F -16.6 °F 60% 30.15 in 10.0 mi ENE 3.5 mph - N/A   Clear
3:36 PM -5.8 °F - -14.8 °F 65% 30.15 in 10.0 mi Calm Calm - N/A   Clear
3:56 PM -7.6 °F -20.6 °F -18.4 °F 59% 30.15 in 9.0 mi NNE 5.8 mph - N/A   Clear
4:16 PM -5.8 °F -18.4 °F -16.6 °F 60% 30.16 in 10.0 mi NNE 5.8 mph - N/A   Clear
4:36 PM -5.8 °F -16.7 °F -14.8 °F 65% 30.16 in 10.0 mi NNE 4.6 mph - N/A   Clear
4:56 PM -2.2 °F -12.5 °F -13.0 °F 60% 30.16 in 10.0 mi North 4.6 mph - N/A   Mostly Cloudy
5:16 PM -5.8 °F -16.7 °F -16.6 °F 60% 30.16 in 10.0 mi NNW 4.6 mph - N/A   Overcast
5:36 PM -5.8 °F - -13.0 °F 71% 30.15 in 10.0 mi Calm Calm - N/A   Overcast
5:56 PM -7.6 °F - -18.4 °F 59% 30.15 in 10.0 mi Calm Calm - N/A   Mostly Cloudy
6:16 PM -9.4 °F - -18.4 °F 65% 30.16 in 10.0 mi Calm Calm - N/A   Clear
6:36 PM -9.4 °F - -16.6 °F 71% 30.15 in 10.0 mi Calm Calm - N/A   Clear
6:56 PM -9.4 °F - -18.4 °F 65% 30.13 in 10.0 mi Calm Calm - N/A   Clear
7:16 PM -9.4 °F -24.3 °F -20.2 °F 59% 30.14 in 10.0 mi SSW 6.9 mph - N/A   Clear
7:36 PM -9.4 °F -24.3 °F -20.2 °F 59% 30.13 in 10.0 mi SW 6.9 mph - N/A   Clear
7:56 PM -11.2 °F -24.8 °F -20.2 °F 64% 30.13 in 10.0 mi South 5.8 mph - N/A   Clear
8:16 PM -11.2 °F -26.4 °F -20.2 °F 64% 30.12 in 10.0 mi SSW 6.9 mph - N/A   Clear
8:36 PM -9.4 °F -26.8 °F -16.6 °F 71% 30.12 in 10.0 mi SSW 9.2 mph - N/A   Clear
8:56 PM -9.4 °F -25.6 °F -18.4 °F 65% 30.11 in 10.0 mi South 8.1 mph - N/A   Clear
9:16 PM -9.4 °F -27.9 °F -18.4 °F 65% 30.11 in 10.0 mi South 10.4 mph - N/A   Clear
9:36 PM -4.0 °F -23.0 °F -5.8 °F 92% 30.11 in 10.0 mi South 12.7 mph - N/A   Clear
9:56 PM -4.0 °F -22.1 °F -14.8 °F 60% 30.11 in 10.0 mi South 11.5 mph - N/A   Clear
10:16 PM -5.8 °F -24.4 °F -11.2 °F 77% 30.12 in 10.0 mi South 11.5 mph - N/A   Clear
10:36 PM -2.2 °F -20.7 °F -11.2 °F 66% 30.11 in 10.0 mi SSW 12.7 mph - N/A   Clear
10:56 PM -4.0 °F -21.2 °F -13.0 °F 65% 30.10 in 10.0 mi South 10.4 mph - N/A   Clear
11:16 PM -4.0 °F -22.1 °F -13.0 °F 65% 30.10 in 10.0 mi South 11.5 mph - N/A   Clear
11:36 PM -4.0 °F -22.1 °F -13.0 °F 65% 30.10 in 10.0 mi South 11.5 mph - N/A   Clear
11:56 PM -5.8 °F -19.9 °F -16.6 °F 60% 30.09 in 10.0 mi South 6.9 mph - N/A   Clear